| time (UTC) | temp F | wind direction | speed knots | gust knots | rain 1hr in | rain 24hr in | rain mn in | humidity % | barometer mb |
| 20260506134517 | 45 | 176 | 0.0 | 2.6 | 0.00 | 0.03 | 0.00 | 46 | 1008.7 |
| 20260506133036 | 46 | 314 | 0.0 | 2.6 | 0.00 | 0.03 | 0.00 | 43 | 1008.6 |
| 20260506131520 | 47 | 217 | 0.0 | 2.6 | 0.00 | 0.03 | 0.00 | 42 | 1008.6 |
| 20260506130012 | 46 | 16 | 0.0 | 3.5 | 0.00 | 0.03 | 0.00 | 42 | 1008.6 |
| 20260506124510 | 47 | 222 | 0.9 | 4.3 | 0.00 | 0.03 | 0.00 | 43 | 1008.5 |
| 20260506123007 | 45 | 183 | 0.0 | 2.6 | 0.00 | 0.03 | 0.00 | 44 | 1008.5 |
| 20260506121503 | 44 | 271 | 0.0 | 0.0 | 0.00 | 0.03 | 0.00 | 47 | 1008.4 |
| 20260506120100 | 42 | 212 | 0.0 | 0.9 | 0.00 | 0.03 | 0.00 | 50 | 1008.4 |
| 20260506114604 | 42 | 98 | 0.0 | 1.7 | 0.00 | 0.03 | 0.00 | 47 | 1008.3 |
| 20260506113101 | 42 | 330 | 0.0 | 1.7 | 0.00 | 0.03 | 0.00 | 47 | 1008.2 |
| 20260506111605 | 42 | 47 | 0.0 | 1.7 | 0.00 | 0.03 | 0.00 | 47 | 1008.1 |
| 20260506110054 | 42 | 333 | 0.0 | 0.9 | 0.00 | 0.03 | 0.00 | 47 | 1008.1 |
| 20260506104558 | 42 | 71 | 0.0 | 1.7 | 0.00 | 0.03 | 0.00 | 50 | 1007.8 |
| 20260506103058 | 41 | 34 | 0.0 | 1.7 | 0.00 | 0.03 | 0.00 | 49 | 1007.8 |
| 20260506101552 | 42 | 60 | 0.0 | 0.0 | 0.00 | 0.03 | 0.00 | 50 | 1007.6 |
| 20260506100051 | 41 | 82 | 1.7 | 5.2 | 0.00 | 0.03 | 0.00 | 51 | 1007.5 |
| 20260506094545 | 41 | 72 | 0.0 | 2.6 | 0.00 | 0.03 | 0.00 | 51 | 1007.3 |
| 20260506093044 | 41 | 333 | 0.0 | 2.6 | 0.00 | 0.03 | 0.00 | 50 | 1007.2 |
| 20260506091542 | 42 | 78 | 0.0 | 3.5 | 0.00 | 0.03 | 0.00 | 50 | 1006.9 |
| 20260506090041 | 42 | 200 | 0.0 | 6.1 | 0.00 | 0.03 | 0.00 | 48 | 1006.8 |
| 20260506084542 | 42 | 43 | 0.0 | 0.9 | 0.00 | 0.08 | 0.00 | 50 | 1006.7 |
| 20260506083035 | 41 | 83 | 0.0 | 4.3 | 0.00 | 0.08 | 0.00 | 55 | 1006.6 |
| 20260506081532 | 40 | 245 | 0.0 | 2.6 | 0.00 | 0.08 | 0.00 | 55 | 1006.5 |
| 20260506073024 | 39 | 37 | 0.9 | 3.5 | 0.00 | 0.10 | 0.00 | 59 | 1006.1 |
| 20260506071521 | 38 | 115 | 1.7 | 7.0 | 0.00 | 0.10 | 0.00 | 60 | 1005.9 |
| 20260506061507 | 37 | 90 | 0.0 | 1.7 | 0.00 | 0.10 | 0.00 | 65 | 1005.4 |
| 20260506044613 | 34 | 27 | 0.0 | 2.6 | 0.00 | 0.10 | 0.00 | 80 | 1004.7 |
| 20260506043049 | 33 | 331 | 0.0 | 3.5 | 0.00 | 0.10 | 0.00 | 81 | 1004.6 |
| 20260506041548 | 34 | 63 | 0.9 | 4.3 | 0.00 | 0.10 | 0.00 | 81 | 1004.4 |
| 20260506040047 | 33 | 96 | 0.0 | 3.5 | 0.00 | 0.10 | 0.00 | 81 | 1004.3 |
| 20260506034543 | 33 | 62 | 0.0 | 2.6 | 0.00 | 0.10 | 0.00 | 83 | 1004.2 |
| 20260506033043 | 32 | 61 | 0.0 | 2.6 | 0.00 | 0.10 | 0.00 | 85 | 1004.1 |
| 20260506031541 | 31 | 16 | 0.0 | 2.6 | 0.00 | 0.10 | 0.00 | 85 | 1003.9 |
| 20260506030037 | 31 | 71 | 0.0 | 1.7 | 0.00 | 0.10 | 0.00 | 86 | 1003.7 |
| 20260506024537 | 31 | 321 | 0.0 | 1.7 | 0.00 | 0.10 | 0.00 | 86 | 1003.6 |
| 20260506023046 | 31 | 82 | 0.0 | 0.9 | 0.00 | 0.10 | 0.00 | 87 | 1003.5 |
| 20260506021534 | 31 | 106 | 0.0 | 1.7 | 0.00 | 0.10 | 0.00 | 87 | 1003.3 |
| 20260506020033 | 31 | 65 | 0.0 | 1.7 | 0.00 | 0.10 | 0.00 | 87 | 1003.2 |
| 20260506014528 | 31 | 63 | 0.0 | 3.5 | 0.00 | 0.10 | 0.00 | 87 | 1003.1 |
| 20260506013025 | 32 | 72 | 0.0 | 3.5 | 0.00 | 0.10 | 0.00 | 87 | 1002.9 |
| 20260506011522 | 32 | 97 | 0.0 | 3.5 | 0.00 | 0.10 | 0.00 | 86 | 1002.8 |
| 20260506010041 | 32 | 58 | 0.9 | 3.5 | 0.00 | 0.10 | 0.00 | 86 | 1002.6 |
| 20260506004519 | 31 | 6 | 0.0 | 0.9 | 0.00 | 0.10 | 0.00 | 87 | 1002.6 |
| 20260506003018 | 31 | 71 | 0.0 | 0.9 | 0.00 | 0.10 | 0.00 | 86 | 1002.4 |
| 20260506001515 | 32 | 91 | 0.0 | 0.0 | 0.00 | 0.10 | 0.00 | 86 | 1002.2 |
| 20260506000013 | 32 | 99 | 0.0 | 0.0 | 0.00 | 0.10 | 0.00 | 86 | 1002.0 |
| 20260505234530 | 32 | 65 | 0.0 | 0.0 | 0.00 | 0.10 | 0.00 | 86 | 1001.9 |
| 20260505233008 | 33 | 65 | 0.0 | 0.9 | 0.00 | 0.10 | 0.00 | 84 | 1001.9 |
| 20260505231506 | 34 | 95 | 0.0 | 0.0 | 0.00 | 0.10 | 0.00 | 84 | 1001.8 |
| 20260505230007 | 34 | 80 | 0.0 | 0.9 | 0.00 | 0.10 | 0.00 | 85 | 1001.7 |
| 20260505224506 | 34 | 72 | 0.0 | 0.9 | 0.00 | 0.10 | 0.00 | 85 | 1001.6 |
| 20260505223001 | 34 | 70 | 0.0 | 0.9 | 0.00 | 0.10 | 0.00 | 85 | 1001.6 |
| 20260505221601 | 34 | 108 | 0.0 | 0.0 | 0.00 | 0.10 | 0.00 | 86 | 1001.4 |
| 20260505220058 | 34 | 82 | 0.0 | 1.7 | 0.00 | 0.10 | 0.00 | 87 | 1001.3 |
| 20260505214623 | 34 | 110 | 0.0 | 0.0 | 0.00 | 0.10 | 0.00 | 87 | 1001.2 |
| 20260505213102 | 34 | 95 | 0.0 | 0.9 | 0.00 | 0.10 | 0.00 | 87 | 1001.0 |
| 20260505211551 | 34 | 97 | 0.0 | 0.9 | 0.00 | 0.10 | 0.00 | 86 | 1000.8 |
| 20260505210056 | 35 | 105 | 0.0 | 1.7 | 0.00 | 0.10 | 0.00 | 86 | 1000.7 |
| 20260505204556 | 34 | 80 | 0.0 | 0.0 | 0.00 | 0.10 | 0.10 | 85 | 1000.5 |
| 20260505203052 | 34 | 58 | 0.0 | 0.9 | 0.00 | 0.10 | 0.10 | 84 | 1000.3 |
| 20260505201545 | 35 | 94 | 0.0 | 1.7 | 0.00 | 0.10 | 0.10 | 83 | 1000.2 |
| 20260505200058 | 35 | 68 | 0.0 | 2.6 | 0.00 | 0.10 | 0.10 | 84 | 1000.1 |
| 20260505194547 | 35 | 74 | 0.0 | 0.9 | 0.00 | 0.10 | 0.10 | 85 | 1000.0 |
| 20260505193045 | 35 | 77 | 0.0 | 0.0 | 0.00 | 0.10 | 0.10 | 85 | 1000.0 |
| 20260505191538 | 35 | 82 | 0.0 | 1.7 | 0.00 | 0.10 | 0.10 | 84 | 999.8 |
| 20260505190038 | 36 | 84 | 0.0 | 0.9 | 0.01 | 0.10 | 0.10 | 85 | 999.6 |
| 20260505184534 | 36 | 82 | 0.0 | 2.6 | 0.01 | 0.10 | 0.10 | 84 | 999.4 |
| 20260505183033 | 36 | 49 | 0.0 | 1.7 | 0.02 | 0.10 | 0.10 | 86 | 999.1 |
| 20260505181531 | 36 | 86 | 0.0 | 2.6 | 0.02 | 0.10 | 0.10 | 86 | 999.0 |
| 20260505180051 | 37 | 321 | 0.0 | 4.3 | 0.01 | 0.09 | 0.09 | 84 | 999.0 |
| 20260505174547 | 38 | 65 | 0.0 | 6.1 | 0.01 | 0.09 | 0.09 | 83 | 998.7 |
| 20260505173031 | 39 | 44 | 0.0 | 0.9 | 0.00 | 0.09 | 0.09 | 80 | 998.5 |
| 20260505171524 | 40 | 37 | 0.0 | 4.3 | 0.01 | 0.09 | 0.09 | 79 | 998.3 |
| 20260505170022 | 39 | 54 | 0.9 | 5.2 | 0.01 | 0.09 | 0.09 | 82 | 998.1 |
| 20260505164519 | 38 | 29 | 0.0 | 3.5 | 0.01 | 0.09 | 0.09 | 86 | 998.0 |
| 20260505163021 | 38 | 16 | 0.0 | 5.2 | 0.01 | 0.09 | 0.09 | 86 | 997.9 |
| 20260505161515 | 40 | 30 | 2.6 | 6.1 | 0.01 | 0.08 | 0.08 | 78 | 997.8 |
| 20260505153012 | 39 | 102 | 1.7 | 7.0 | 0.01 | 0.08 | 0.08 | 81 | 997.5 |
| 20260505151513 | 40 | 103 | 0.0 | 0.9 | 0.00 | 0.07 | 0.07 | 79 | 997.1 |